Regional Weather Roundup
Issued by NWS

Home | Current Version | Previous Version | Graphics & Text | Print | Product List | Glossary On
Versions: 1 2 3 4 5 6 7 8 9 10 11 12 13 14 15 16 17 18 19 20 21 22 23 24 25 26 27 28 29 30 31 32 33 34 35 36 37 38 39 40 41 42 43 44 45 46 47 48 49 50
190
ASUS45 KSLC 200410
RWRUT

UTAH REGIONAL WEATHER ROUNDUP
NATIONAL WEATHER SERVICE SALT LAKE CITY UT
1000 PM MDT WED JUL 19 2017

UTZ001>011-023>025-200500-

NORTHERN UTAH

CITY           SKY/WX    TMP DP  RH WIND       PRES   REMARKS
BRIGHAM CITY   CLOUDY    83  49  29 S17       30.04R
HILL AFB       NOT AVBL
LOGAN          CLOUDY    83  55  38 VRB3      30.04R
OGDEN          MOCLDY    81  53  37 S10       30.05R
SALT LAKE CITY CLOUDY    81  57  43 SE12      30.03S
TOOELE VALLEY  CLOUDY    79  55  44 S18G28    30.04R
WENDOVER       PTCLDY    87  49  26 S9        30.00R
HEBER CITY     CLOUDY    64  55  72 E5        30.18S
WEST JORDAN    CLOUDY    77  60  56 S15       30.08S

$$

UTZ011>015-024>027-200500-

CENTRAL/NORTHEAST UTAH

CITY           SKY/WX    TMP DP  RH WIND       PRES   REMARKS
PROVO AIRPORT  CLOUDY    71  64  78 E3        30.11S
MOAB/CANYONLAN CLOUDY    80  63  55 E8        30.08R
DELTA          MOCLDY    75  55  50 NE8       30.11R
PRICE          MOCLDY    79  51  37 NE21      30.21R
ROOSEVELT      CLOUDY    70  55  60 E13       30.24R
VERNAL         LGT RAIN  69  61  75 E9        30.27S

$$

UTZ013>016-019>022-027-200500-

SOUTHERN UTAH

CITY           SKY/WX    TMP DP  RH WIND       PRES   REMARKS
BRYCE CANYON   MOCLDY    64  54  69 NE3       30.37R
CEDAR CITY     CLOUDY    74  53  48 W6        30.20R
MILFORD        MOCLDY    75  56  51 S13       30.14R
ST GEORGE      CLOUDY    85  65  51 W9        30.03R
HANKSVILLE     PTCLDY    81  48  32 CALM      30.11R
BLANDING       PTCLDY    73  50  43 W8        30.26R

$$

REGIONAL REPORTS     COLORADO/ARIZONA

CITY           SKY/WX    TMP DP  RH WIND       PRES   REMARKS
CRAIG, CO      CLOUDY    67  53  61 S10       30.35R
GRAND JUNCTION CLOUDY    78  57  48 NW7G18    30.14R
RIFLE, CO      CLOUDY    72  57  59 VRB6      30.25R
MONTROSE, CO   CLOUDY    74  52  46 SE7       30.19R
CORTEZ, CO     CLOUDY    75  50  41 E6        30.19R
COLORADO CITY    N/A     73  64  73 E5        30.21R
PAGE, AZ       CLEAR     83  56  39 NW5       30.10R
GRAND CANYON   MOCLDY    61  59  93 CALM      30.31F
KINGMAN, AZ    MOCLDY    77  73  87 CALM      30.08R
FLAGSTAFF, AZ  CLOUDY    58  53  84 SW6       30.32R

$$

REGIONAL REPORTS    NEVADA/IDAHO/WYOMING

CITY           SKY/WX    TMP DP  RH WIND       PRES   REMARKS
LAS VEGAS, NV  MOCLDY    86  65  49 VRB5      29.96S
ELY, NY        MOCLDY    76  52  43 SE17      30.17R
ELKO, NV       CLEAR     80  18  10 CALM      30.06R
POCATELLO, ID  PTCLDY    78  35  21 CALM      30.03R
BURLEY, ID     PTCLDY    74  53  48 SE6       29.99R
FORT BRIDGER,    N/A     69  47  46 S13       30.31R
EVANSTON, WY   CLOUDY    67  49  52 S6        30.29R
ROCK SPRINGS,  CLOUDY    64  52  64 SE22G29   30.27F
KEMMERER, WY     N/A     68  45  42 SE6       30.30R

$$




USA.gov is the U.S. government's official web portal to all federal, state and local government web resources and services.